• In Österreich
  • Länderverzeichnis
  • Für 7 Tage
  • Wassertemperatur
  • Satellitenkarten
  • Wetterkarte
  • News
  • Widgets
  • user-avatar
    Anmelden

    Stündliche Wetter Kaprun

    Heute, 12 Dezember, Dienstag

    Zeit Temperatur Niederschläge Wind Luftdruck Luftfeuchtigkeit
    00:00 -4°C° 1,7 mm 4 m/S 581 mmHg 95%
    01:00 -4°C° 0 mm 3 m/S 582 mmHg 96%
    02:00 -4°C° 3 mm 3 m/S 582 mmHg 96%
    03:00 -4°C° 3 mm 3 m/S 582 mmHg 96%
    04:00 -4°C° 3 mm 3 m/S 583 mmHg 96%
    05:00 -5°C° 1,4 mm 3 m/S 584 mmHg 96%
    06:00 -5°C° 1,4 mm 3 m/S 584 mmHg 97%
    07:00 -5°C° 1,4 mm 3 m/S 585 mmHg 97%
    08:00 -5°C° 0,7 mm 3 m/S 586 mmHg 97%
    09:00 -6°C° 0,7 mm 3 m/S 587 mmHg 96%
    10:00 -6°C° 0,7 mm 3 m/S 587 mmHg 96%
    11:00 -6°C° 0,6 mm 3 m/S 588 mmHg 96%
    12:00 -6°C° 0,6 mm 2 m/S 588 mmHg 96%
    13:00 -6°C° 0,6 mm 2 m/S 589 mmHg 95%
    14:00 -7°C° 0,4 mm 2 m/S 589 mmHg 96%
    15:00 -6°C° 0,4 mm 1 m/S 589 mmHg 96%
    16:00 -7°C° 0,4 mm 1 m/S 589 mmHg 96%
    17:00 -7°C° 0,4 mm 1 m/S 589 mmHg 96%
    18:00 -8°C° 0,4 mm 1 m/S 590 mmHg 97%
    19:00 -8°C° 0,4 mm 1 m/S 590 mmHg 97%
    20:00 -8°C° 0,5 mm 1 m/S 590 mmHg 96%
    21:00 -10°C° 0,5 mm 2 m/S 591 mmHg 96%
    22:00 -10°C° 0,5 mm 2 m/S 591 mmHg 96%
    23:00 -10°C° 0,5 mm 2 m/S 591 mmHg 95%

    Morgen, 13 Dezember, Mittwoch

    Zeit Temperatur Niederschläge Wind Luftdruck Luftfeuchtigkeit
    00:00 -12°C° 0,5 mm 2 m/S 591 mmHg 94%
    01:00 -12°C° 0,5 mm 2 m/S 591 mmHg 94%
    02:00 -12°C° 0,3 mm 2 m/S 591 mmHg 93%
    03:00 -13°C° 0,3 mm 2 m/S 591 mmHg 93%
    04:00 -11°C° 0,3 mm 1 m/S 591 mmHg 92%
    05:00 -12°C° 0,2 mm 1 m/S 591 mmHg 92%
    06:00 -12°C° 0,2 mm 1 m/S 591 mmHg 92%
    07:00 -13°C° 0,2 mm 1 m/S 591 mmHg 91%
    08:00 -12°C° 0,1 mm 1 m/S 592 mmHg 90%
    09:00 -11°C° 0,1 mm 1 m/S 592 mmHg 88%
    10:00 -10°C° 0,1 mm 1 m/S 593 mmHg 87%
    11:00 -9°C° 0 mm 1 m/S 593 mmHg 84%
    12:00 -7°C° 0 mm 1 m/S 593 mmHg 82%
    13:00 -6°C° 0 mm 1 m/S 593 mmHg 79%
    14:00 -7°C° 0 mm 1 m/S 592 mmHg 82%
    15:00 -9°C° 0 mm 2 m/S 591 mmHg 84%
    16:00 -10°C° 0 mm 2 m/S 590 mmHg 87%
    17:00 -12°C° 0 mm 2 m/S 590 mmHg 86%
    18:00 -12°C° 0 mm 2 m/S 590 mmHg 85%
    19:00 -13°C° 0 mm 2 m/S 589 mmHg 83%
    20:00 -12°C° 0 mm 2 m/S 589 mmHg 81%
    21:00 -12°C° 0 mm 2 m/S 589 mmHg 78%
    22:00 -12°C° 0 mm 2 m/S 589 mmHg 76%
    23:00 -13°C° 0 mm 3 m/S 588 mmHg 76%

    übermorgen, 14 Dezember, Donnerstag

    Zeit Temperatur Niederschläge Wind Luftdruck Luftfeuchtigkeit
    00:00 -13°C° 0 mm 3 m/S 588 mmHg 76%
    01:00 -13°C° 0 mm 3 m/S 587 mmHg 75%
    02:00 -12°C° 0 mm 3 m/S 587 mmHg 76%
    03:00 -12°C° 0 mm 3 m/S 587 mmHg 77%
    04:00 -12°C° 0 mm 3 m/S 587 mmHg 78%
    05:00 -12°C° 0 mm 3 m/S 587 mmHg 77%
    06:00 -10°C° 0 mm 3 m/S 587 mmHg 76%
    07:00 -9°C° 0 mm 2 m/S 586 mmHg 75%
    08:00 -8°C° 0 mm 2 m/S 587 mmHg 77%
    09:00 -7°C° 0 mm 2 m/S 587 mmHg 79%
    10:00 -7°C° 0 mm 2 m/S 587 mmHg 81%
    11:00 -6°C° 0,2 mm 2 m/S 587 mmHg 84%
    12:00 -3°C° 0,2 mm 1 m/S 587 mmHg 87%
    13:00 -3°C° 0,2 mm 1 m/S 587 mmHg 90%
    14:00 -4°C° 0,4 mm 1 m/S 586 mmHg 91%
    15:00 -4°C° 0,4 mm 1 m/S 586 mmHg 92%
    16:00 -6°C° 0,4 mm 1 m/S 585 mmHg 93%
    17:00 -8°C° 0,1 mm 2 m/S 585 mmHg 92%
    18:00 -9°C° 0,1 mm 2 m/S 584 mmHg 91%
    19:00 -10°C° 0,1 mm 2 m/S 583 mmHg 90%
    20:00 -9°C° 0 mm 2 m/S 583 mmHg 89%
    21:00 -10°C° 0 mm 3 m/S 583 mmHg 88%
    22:00 -10°C° 0 mm 3 m/S 582 mmHg 88%
    23:00 -10°C° 0,1 mm 3 m/S 582 mmHg 89%

    15 Dezember, Freitag

    Zeit Temperatur Niederschläge Wind Luftdruck Luftfeuchtigkeit
    00:00 -9°C° 0,1 mm 3 m/S 582 mmHg 91%
    01:00 -9°C° 0,1 mm 3 m/S 583 mmHg 92%
    02:00 -8°C° 0,9 mm 2 m/S 583 mmHg 93%
    03:00 -7°C° 0,9 mm 1 m/S 583 mmHg 95%
    04:00 -7°C° 0,9 mm 1 m/S 583 mmHg 96%
    05:00 -7°C° 0,6 mm 1 m/S 583 mmHg 96%
    06:00 -7°C° 0,6 mm 1 m/S 583 mmHg 96%
    07:00 -9°C° 0,6 mm 2 m/S 583 mmHg 95%
    08:00 -7°C° 0,5 mm 1 m/S 583 mmHg 95%
    09:00 -7°C° 0,5 mm 1 m/S 583 mmHg 94%
    10:00 -7°C° 0,5 mm 1 m/S 583 mmHg 94%
    11:00 -7°C° 0,4 mm 1 m/S 583 mmHg 93%
    12:00 -7°C° 0,4 mm 1 m/S 583 mmHg 91%
    13:00 -6°C° 0,4 mm 1 m/S 583 mmHg 90%
    14:00 -7°C° 0,2 mm 1 m/S 583 mmHg 91%
    15:00 -7°C° 0,2 mm 1 m/S 582 mmHg 93%
    16:00 -8°C° 0,2 mm 1 m/S 582 mmHg 94%
    17:00 -9°C° 0,1 mm 1 m/S 582 mmHg 93%
    18:00 -9°C° 0,1 mm 1 m/S 582 mmHg 92%
    19:00 -10°C° 0,1 mm 1 m/S 582 mmHg 91%
    20:00 -10°C° 0,1 mm 1 m/S 582 mmHg 90%
    21:00 -11°C° 0,1 mm 1 m/S 583 mmHg 90%
    22:00 -11°C° 0,1 mm 1 m/S 583 mmHg 89%
    23:00 -12°C° 0 mm 1 m/S 583 mmHg 89%

    16 Dezember, Samstag

    Zeit Temperatur Niederschläge Wind Luftdruck Luftfeuchtigkeit
    00:00 -12°C° 0 mm 1 m/S 582 mmHg 89%
    01:00 -13°C° 0 mm 1 m/S 582 mmHg 89%
    02:00 -13°C° 0 mm 1 m/S 583 mmHg 87%
    03:00 -15°C° 0 mm 2 m/S 583 mmHg 86%
    04:00 -14°C° 0 mm 2 m/S 584 mmHg 84%
    05:00 -14°C° 0,2 mm 2 m/S 584 mmHg 85%
    06:00 -14°C° 0,2 mm 2 m/S 585 mmHg 86%
    07:00 -14°C° 0,2 mm 2 m/S 585 mmHg 88%
    08:00 -13°C° 0,4 mm 2 m/S 586 mmHg 89%
    09:00 -13°C° 0,4 mm 2 m/S 587 mmHg 90%
    10:00 -12°C° 0,4 mm 2 m/S 588 mmHg 91%
    11:00 -10°C° 0,1 mm 2 m/S 588 mmHg 87%
    12:00 -10°C° 0,1 mm 2 m/S 589 mmHg 83%
    13:00 -10°C° 0,1 mm 2 m/S 589 mmHg 79%
    14:00 -12°C° 0 mm 2 m/S 589 mmHg 82%
    15:00 -11°C° 0 mm 1 m/S 588 mmHg 85%
    16:00 -12°C° 0 mm 1 m/S 588 mmHg 88%
    17:00 -13°C° 0 mm 1 m/S 588 mmHg 87%
    18:00 -14°C° 0 mm 1 m/S 588 mmHg 87%
    19:00 -17°C° 0 mm 2 m/S 588 mmHg 87%
    20:00 -15°C° 0 mm 1 m/S 588 mmHg 85%
    21:00 -14°C° 0 mm 1 m/S 589 mmHg 84%
    22:00 -14°C° 0 mm 1 m/S 589 mmHg 82%
    23:00 -14°C° 0 mm 1 m/S 589 mmHg 81%

    17 Dezember, Sonntag

    Zeit Temperatur Niederschläge Wind Luftdruck Luftfeuchtigkeit
    00:00 -13°C° 0 mm 1 m/S 589 mmHg 80%
    01:00 -13°C° 0 mm 1 m/S 590 mmHg 79%
    02:00 -13°C° 0,1 mm 1 m/S 590 mmHg 79%
    03:00 -13°C° 0,1 mm 1 m/S 590 mmHg 80%
    04:00 -13°C° 0,1 mm 1 m/S 590 mmHg 81%
    05:00 -13°C° 0,2 mm 1 m/S 590 mmHg 84%
    06:00 -13°C° 0,2 mm 1 m/S 591 mmHg 87%
    07:00 -13°C° 0,2 mm 1 m/S 591 mmHg 90%
    08:00 -12°C° 0,2 mm 1 m/S 592 mmHg 91%
    09:00 -11°C° 0,2 mm 1 m/S 592 mmHg 91%
    10:00 -10°C° 0,2 mm 1 m/S 593 mmHg 92%
    11:00 -12°C° 0,2 mm 2 m/S 593 mmHg 91%
    12:00 -10°C° 0,2 mm 2 m/S 593 mmHg 90%
    13:00 -10°C° 0,2 mm 2 m/S 594 mmHg 88%
    14:00 -12°C° 0,1 mm 2 m/S 594 mmHg 90%
    15:00 -12°C° 0,1 mm 2 m/S 594 mmHg 92%
    16:00 -13°C° 0,1 mm 2 m/S 594 mmHg 93%
    17:00 -14°C° 0,1 mm 2 m/S 594 mmHg 93%
    18:00 -15°C° 0,1 mm 2 m/S 594 mmHg 94%
    19:00 -15°C° 0,1 mm 2 m/S 594 mmHg 94%
    20:00 -16°C° 0,1 mm 2 m/S 594 mmHg 93%
    21:00 -16°C° 0,1 mm 2 m/S 594 mmHg 93%
    22:00 -17°C° 0,1 mm 2 m/S 595 mmHg 92%
    23:00 -17°C° 0 mm 2 m/S 595 mmHg 91%
    Mehr zeigen